Home   Weather   Chaguanas   Past weeks

Flag for Trinidad and Tobago Past Weather in Chaguanas, Trinidad and Tobago — Yesterday and Last 2 Weeks

Now
95 °F

Scattered clouds.


Feels Like: 100 °F
Forecast: 75 / 93 °F
Wind: 16 mph from Southeast

Location: Piarco International Airport - Trinidad

Current Time: Apr 25, 2017 at 2:34:42 pm

Latest Report: Apr 25, 2017 at 2:00 pm


Visibility: 4 mi

Pressure: 29.86 "Hg

Humidity: 41%

Dew Point: 68 °F

Location of ChaguanasLocation

Past Weather in Chaguanas — Graph

°F

Chaguanas Temperature Yesterday

Maximum temperature yesterday: 91 °F (at 10:00 am)
Minimum temperature yesterday: 77 °F (at 12:00 am)
Average temperature yesterday: 83 °F

High & Low Weather Summary for the Past Weeks

 TemperatureHumidityPressure
High95 °F (Apr 25, 1:00 pm)100% (Apr 18, 10:00 am)29.98 "Hg (Apr 18, 10:00 am)
Low70 °F (Apr 18, 10:00 am)41% (Apr 25, 1:00 pm)29.80 "Hg (Apr 12, 5:00 pm)
Average83 °F73%29.89 "Hg
* Reported Apr 10 1:00 pm — Apr 25 1:00 pm, Chaguanas, Weather by CustomWeather, © 2017

Note: Actual official high and low records may vary slightly from our data, if they occured in-between our weather recording intervals... More about our weather records

Advertising

Chaguanas Weather History for the Previous 24 Hours

Scroll right to see more
 ConditionsComfort  
Time TempWeatherWind HumidityBarometerVisibility
1:00 pm
Tue, Apr 25
95 °FScattered clouds.16 mph41%29.89 "Hg4 mi
12:00 pm91 °FScattered clouds.16 mph49%29.92 "HgN/A
11:00 am90 °FScattered clouds.16 mph52%29.92 "HgN/A
10:00 am91 °FScattered showers. Partly sunny.18 mph52%29.95 "Hg6 mi
9:00 am90 °FScattered showers. Scattered clouds.17 mph55%29.95 "Hg5 mi
8:00 am84 °FPassing clouds.5 mph74%29.92 "HgN/A
7:00 am79 °FPassing clouds.No wind89%29.89 "HgN/A
6:00 am75 °FPassing clouds.No wind94%29.89 "HgN/A
5:00 am75 °FPassing clouds.No wind94%29.86 "HgN/A
4:00 am75 °FPassing clouds.No wind94%29.86 "HgN/A
3:00 am77 °FPassing clouds.No wind89%29.86 "HgN/A
2:00 am77 °FPassing clouds.No wind89%29.86 "HgN/A
1:00 am77 °FPassing clouds.No wind89%29.89 "HgN/A
12:00 am77 °FPassing clouds.No wind89%29.92 "HgN/A
11:00 pm
Mon, Apr 24
77 °FPassing clouds.No wind89%29.92 "HgN/A
10:00 pm79 °FPassing clouds.No wind84%29.92 "HgN/A
9:00 pm79 °FPassing clouds.No wind84%29.89 "HgN/A
8:00 pm81 °FPassing clouds.6 mph79%29.86 "HgN/A
7:00 pm81 °FPassing clouds.9 mph79%29.86 "HgN/A
6:00 pm84 °FScattered showers. Passing clouds.14 mph66%29.83 "HgN/A
5:00 pm86 °FPassing clouds.16 mph62%29.83 "HgN/A
4:00 pm90 °FPassing clouds.18 mph52%29.83 "HgN/A
3:00 pm90 °FScattered clouds.21 mph55%29.86 "HgN/A
2:00 pm91 °FPartly sunny.17 mph52%29.86 "HgN/A
Weather by CustomWeather, © 2017

See weather overviewHow to use our weather pages